SCP
0 0 0 0 0 0 0 0 0 0 0 0 0 0 0 0 0 0 0 0 0 0 0 0 0 0 0 0 0 0 0 0 0 0 0 0 0 0 0 0 0 0 0
-0 0 0 0 0 0 0 0 0 0 0 0 0 0 0 0 0 0 0 0 0 0 0 0 0 0 0 0 0 0 0 0 0 0 0 0 0 0 0 0 0 0 0
-0 0 0 0 0 0 0 0 0 0 0 0 0 0 0 0 0 0 0 0 0 0 0 0 0 0 0 0 0 0 0 0 0 0 0 0 0 0 0 0 0 0 0
0 0 0 0 0 0 0 0 0 0 0 0 0 0 0 0 0 0 0 0 0 0 0 0 0 0 0 0 0 0 0 0 0 0 0 0 0 0 0 0 0 0 0
0 0 0 0 0 0 0 0 0 0 0 0 0 0 0 0 0 0 0 0 0 0 0 0 0 0 0 0 0 0 0 0 0 0 0 0 0 0 0 0 0 0 0
0 0 0 0 0 0 0 0 0 0 0 0 0 0 0 0 0 0 0 0 0 0 0 0 0 0 0 0 0 0 0 0 0 0 0 0 0 0 0 0 0 0 0
0 0 0 0 0 0 0 0 0 0 0 0 0 0 0 0 0 0 0 0 0 0 0 0 0 0 0 0 0 0 0 0 0 0 0 0 0 0 0 0 0 0 0
0 0 0 0 0 0 0 0 0 0 0 0 0 0 0 0 0 0 0 0 0 0 0 0 0 0 0 0 0 0 0 0 0 0 0 0 0 0 0 0 0 0 0
0 0 0 0 0 0 0 0 0 0 0 0 0 0 0 0 0 0 0 0 0 0 0 0 0 0 0 0 0 0 0 0 0 0 0 0 0 0 0 0 0 0 0
0 0 0 0 0 0 0 0 0 0 0 0 0 0 0 0 0 0 0 0 0 0 0 0 0 0 0 0 0 0 0 0 0 0 0 0 0 0 0 0 0 0 0
0 0 0 0 0 0 0 0 0 0 0 0 0 0 0 0 0 0 0 0 0 0 0 0 0 0 0 0 0 0 0 0 0 0 0 0 0 0 0 0 0 0 0
0 0 0 0 0 0 0 0 0 0 0 0 0 0 0 0 0 0 0 0 0 0 0 0 0 0 0 0 0 0 0 0 0 0 0 0 0 0 0 0 0 0 0
0 0 0 0 0 0 0 0 0 0 0 0 0 0 0 0 0 0 0 0 0 0 0 0 0 0 0 0 0 0 0 0 0 0 0 0 0 0 0 0 0 0 0
0 0 0 0 0 0 0 0 0 0 0 0 0 0 0 0 0 0 0 0 0 0 0 0 0 0 0 0 0 0 0 0 0 0 0 0 0 0 0 0 0 0 0
0 0 0 0 0 0 0 0 0 0 0 0 0 0 0 0 0 0 0 0 0 0 0 0 0 0 0 0 0 0 0 0 0 0 0 0 0 0 0 0 0 0 0
0 0 0 0 0 0 0 0 0 0 0 0 0 0 0 0 0 0 0 0 0 0 0 0 0 0 0 0 0 0 0 0 0 0 0 0 0 0 0 0 0 0 0
0 0 0 0 0 0 0 0 0 0 0 0 0 0 0 0 0 0 0 0 0 0 0 0 0 0 0 0 0 0 0 0 0 0 0 0 0 0 0 0 0 0 0
0 0 0 0 0 0 0 0 0 0 0 0 0 0 0 0 0 0 0 0 0 0 0 0 0 0 0 0 0 0 0 0 0 0 0 0 0 0 0 0 0 0 0
0 0 0 0 0 0 0 0 0 0 0 0 0 0 0 0 0 0 0 0 0 0 0 0 0 0 0 0 0 0 0 0 0 0 0 0 0 0 0 0 0 0 0
0 0 0 0 0 0 0 0 0 0 0 0 0 0 0 0 0 0 0 0 0 0 0 0 0 0 0 0 0 0 0 0 0 0 0 0 0 0 0 0 0 0 0
0 0 0 0 0 0 0 0 0 0 0 0 0 0 0 0 0 0 0 0 0 0 0 0 0 0 0 0 0 0 0 0 0 0 0 0 0 0 0 0 0 0 0
0 0 0 0 0 0 0 0 0 0 0 0 0 0 0 0 0 0 0 0 0 0 0 0 0 0 0 0 0 0 0 0 0 0 0 0 0 0 0 0 0 0 0
0 0 0 0 0 0 0 0 0 0 0 0 0 0 0 0 0 0 0 0 0 0 0 0 0 0 0 0 0 0 0 0 0 0 0 0 0 0 0 0 0 0 0
0 0 0 0 0 0 0 0 0 0 0 0 0 0 0 0 0 0 0 0 0 0 0 0 0 0 0 0 0 0 0 0 0 0 0 0 0 0 0 0 0 0 0
0 0 0 0 0 0 0 0 0 0 0 0 0 0 0 0 0 0 0 0 0 0 0 0 0 0 0 0 0 0 0 0 0 0 0 0 0 0 0 0 0 0 0
0 0 0 0 0 0 0 0 0 0 0 0 0 0 0 0 0 0 0 0 0 0 0 0 0 0 0 0 0 0 0 0 0 0 0 0 0 0 0 0 0 0 0
Wind_Speed
3 2 2 2 3 2 2 3 3 4 4 4 4 4 4 4 5 5 3 7 7 7 6 6 7 7 6 6 5 5 6 5 5 5 5 5 6 6 6 6 6 6 6
3 3 3 3 3 2 2 2 3 3 2 3 4 4 4 4 4 4 4 4 6 6 6 6 6 7 7 7 6 6 6 6 5 6 6 6 7 6 7 6 6 6 7
5 4 4 3 3 3 4 3 4 3 3 3 3 4 3 4 3 4 3 3 3 5 6 6 6 7 7 7 7 7 7 6 5 5 6 7 7 7 7 7 7 7 8
5 4 3 3 4 4 3 3 4 3 4 3 3 3 3 3 4 4 3 3 2 3 4 6 6 6 6 7 7 7 7 6 5 5 5 6 6 7 7 7 7 7 8
6 4 3 4 4 3 4 4 4 3 3 3 1 3 3 3 3 4 3 4 3 3 3 4 5 6 6 7 7 8 7 7 6 5 5 6 6 6 6 5 6 7 8
6 5 4 5 4 3 3 4 4 3 3 3 3 3 3 3 3 4 4 4 3 4 3 3 2 3 5 6 7 7 7 7 7 7 6 6 6 6 5 6 6 8 9
5 4 4 4 4 4 5 5 4 4 4 3 3 3 3 3 4 3 3 3 4 4 3 3 2 2 2 5 7 8 8 7 7 7 7 6 5 5 6 7 8 9 9
6 5 4 3 4 4 5 5 4 4 3 3 2 2 2 4 4 3 3 4 5 3 4 4 3 3 3 3 5 7 7 7 6 6 6 6 5 5 7 7 8 8 8
5 5 5 4 4 4 3 4 4 4 3 3 3 2 2 1 2 3 4 4 4 4 4 3 5 5 5 4 4 6 7 6 6 5 6 5 5 5 5 5 6 7 7
3 4 4 5 5 4 5 5 5 4 4 3 3 3 2 1 1 1 3 4 4 4 4 4 5 5 5 4 5 7 8 7 6 6 6 5 4 4 4 4 4 5 6
3 4 4 4 4 4 4 4 4 5 4 4 3 3 3 3 3 2 2 3 3 3 3 4 4 4 4 4 4 6 7 6 5 5 6 5 5 3 2 2 2 3 5
2 3 3 4 4 4 4 4 3 4 4 4 4 3 3 3 3 3 2 2 2 2 2 3 3 3 3 4 6 7 7 6 5 5 5 5 5 4 2 1 1 2 4
2 3 3 3 4 3 4 4 4 4 4 4 4 3 3 3 3 3 3 2 2 1 2 2 2 3 3 3 3 6 5 5 5 4 4 4 4 4 3 1 0 1 3
3 3 4 4 4 4 4 4 4 4 4 5 5 4 3 3 3 3 2 2 2 2 2 2 2 3 3 3 3 4 3 4 4 4 3 3 3 3 3 2 1 1 1
3 4 3 4 4 4 5 4 4 4 5 5 5 5 4 3 4 3 3 2 2 2 2 2 2 3 2 2 2 2 1 2 3 3 3 3 3 2 3 3 2 1 1
3 3 2 4 3 3 4 5 4 3 3 3 3 4 4 4 4 3 3 3 3 2 1 2 2 2 3 3 3 3 2 1 1 2 2 2 2 2 3 3 2 2 2
3 3 2 3 4 4 4 4 3 4 4 4 4 5 5 4 4 3 3 3 3 3 2 2 2 3 3 4 4 3 2 1 1 2 1 2 3 3 3 3 3 3 3
2 3 3 3 4 4 4 3 3 3 4 4 5 5 5 4 5 4 3 4 3 3 2 3 3 3 3 3 3 4 4 3 2 2 3 3 3 3 4 4 5 5 4
2 3 3 3 4 4 3 2 2 3 3 3 4 5 5 5 5 4 4 4 3 4 2 2 3 2 3 3 3 4 5 3 4 3 3 3 4 5 6 6 6 6 6
2 2 3 3 4 4 4 3 3 3 3 3 4 4 5 5 5 5 5 5 4 4 3 3 2 2 3 3 3 4 4 4 4 4 4 3 4 6 7 7 7 7 7
3 3 3 4 4 4 5 6 5 3 3 3 3 4 4 5 6 5 4 4 4 3 3 3 3 3 3 3 3 3 4 4 4 3 3 4 3 3 4 5 7 7 8
3 4 4 4 5 5 7 9 7 5 3 3 2 2 3 4 5 5 5 5 4 3 3 3 3 3 3 3 3 4 3 4 4 4 3 5 3 4 4 3 5 7 8
3 3 4 4 5 4 6 7 8 4 3 3 3 3 3 4 5 4 5 5 4 4 3 2 3 4 3 3 4 4 4 4 4 5 4 5 4 4 4 5 7 8 8
3 3 3 4 3 3 4 5 6 4 2 2 2 3 3 4 5 5 5 4 3 3 3 2 2 3 3 3 3 4 5 5 5 4 3 4 4 4 5 4 7 9 8
3 3 3 3 3 2 2 3 4 2 2 2 2 4 4 4 6 8 5 5 5 4 4 5 7 7 8 9 6 3 4 3 5 5 3 2 4 5 5 4 6 8 8
3 3 3 2 3 3 3 2 2 2 2 2 1 2 4 3 4 6 4 4 5 5 5 6 6 7 6 7 7 3 2 3 4 5 3 3 4 4 5 4 4 4 6
Wind_Direction
35 15 60 27 21 11 5 339 351 6 11 7 21 40 44 50 72 88 98 98 94 85 75 64 51 47 49 52 59 62 65 56 43 37 46 68 86 88 92 91 90 91 97
47 18 39 35 21 14 6 355 9 7 13 22 30 34 41 48 63 89 111 106 102 94 82 72 59 52 51 53 55 59 63 55 49 46 56 78 84 87 92 92 89 89 97
52 36 23 28 13 14 18 14 12 8 25 33 36 40 49 43 54 66 98 110 107 96 85 76 70 62 55 53 53 55 55 51 45 52 69 82 85 88 89 89 90 91 99
53 40 20 23 26 19 13 28 17 19 22 28 36 34 45 45 46 59 67 76 86 96 88 82 78 72 64 58 53 53 51 48 41 57 81 89 90 91 92 92 93 97 106
39 44 24 26 31 29 20 29 26 21 20 18 46 67 47 47 40 51 61 70 71 89 92 88 83 75 69 60 57 55 52 50 47 63 80 89 89 95 97 98 105 106 112
32 29 35 33 23 29 29 33 20 19 16 10 41 64 61 56 47 45 47 54 56 71 79 90 94 84 79 66 58 56 50 49 52 61 72 78 86 97 101 101 112 119 118
30 40 35 36 30 32 33 37 18 18 18 24 42 39 37 50 56 60 49 45 47 50 65 74 71 74 81 71 58 58 50 47 55 57 66 72 79 83 94 107 116 122 123
23 29 31 35 47 41 29 33 35 15 6 31 44 52 43 20 11 39 50 53 40 28 38 52 60 62 70 74 63 57 50 47 54 56 63 70 73 77 86 99 112 117 124
38 24 19 24 41 49 38 36 33 36 18 13 42 61 77 46 347 2 41 52 40 34 31 33 47 49 62 68 63 49 47 42 48 56 61 68 72 74 83 95 110 119 120
58 35 24 24 40 44 38 33 30 27 35 17 11 24 54 105 87 19 11 28 37 41 28 38 44 42 52 65 65 52 45 40 41 52 56 60 70 78 89 92 105 125 134
69 48 33 35 49 49 52 49 37 29 35 31 26 15 14 21 35 77 40 6 17 27 31 41 47 40 41 55 61 45 42 38 37 43 47 49 54 64 86 102 115 146 159
78 60 42 37 51 49 46 43 48 47 38 33 32 33 37 38 18 39 51 30 24 3 28 44 45 39 42 48 52 42 37 34 36 42 39 34 34 39 54 96 163 179 183
85 69 54 46 47 45 44 36 43 52 48 46 45 30 28 39 38 43 50 23 13 346 30 34 34 42 38 53 48 28 29 27 29 32 35 30 24 21 17 10 329 194 177
87 84 67 62 48 41 49 37 38 40 44 44 46 40 33 31 36 45 46 39 23 8 18 29 16 29 25 40 29 18 18 25 22 12 12 13 14 11 3 346 306 228 204
92 86 88 83 62 43 44 41 45 37 44 41 36 35 35 30 33 30 33 44 62 34 357 11 10 2 10 32 14 1 10 4 355 1 5 0 351 343 337 334 335 264 250
87 93 93 102 94 75 65 50 42 30 46 53 55 46 37 31 23 22 25 20 35 62 21 344 344 346 2 13 8 353 357 349 333 319 327 332 327 322 308 306 301 283 268
120 106 77 91 97 82 76 63 46 37 34 42 45 55 45 39 25 18 23 22 22 35 35 336 353 352 9 7 351 344 340 318 278 268 275 306 297 299 295 289 284 272 263
102 105 83 73 80 75 74 70 51 44 46 44 46 51 43 38 29 23 22 20 16 17 34 351 339 349 355 346 343 339 340 347 339 281 265 275 288 290 282 278 270 265 262
84 99 99 86 81 76 73 71 66 46 58 59 54 52 45 42 31 17 20 20 8 8 7 358 327 331 336 342 350 340 342 338 332 314 269 267 279 282 278 272 268 260 254
85 76 91 84 77 69 48 35 43 42 46 62 71 65 53 52 37 15 19 12 7 1 352 351 334 330 338 340 2 348 339 336 326 325 327 313 289 283 278 277 270 263 254
92 75 78 78 70 64 44 33 17 22 34 45 65 78 76 68 55 39 26 7 3 359 351 351 342 345 347 353 347 335 335 324 317 324 332 318 305 290 279 274 272 268 262
75 74 70 72 66 62 51 41 22 2 11 23 50 75 97 78 52 32 15 6 4 4 358 351 340 343 334 337 339 334 335 338 322 318 327 307 304 295 284 270 273 269 267
90 81 77 83 82 72 56 39 18 355 359 13 24 37 48 63 51 19 357 351 341 339 339 333 341 331 329 332 336 331 325 316 293 295 320 305 303 297 296 301 290 280 276
123 112 104 104 102 84 66 36 5 347 351 8 22 38 51 56 41 29 1 343 329 326 310 328 307 304 313 310 309 304 297 299 296 299 309 296 304 303 309 305 292 280 275
134 132 128 128 124 110 96 46 12 338 334 348 38 47 51 60 36 25 5 343 337 330 326 329 316 304 300 297 295 311 312 316 306 299 301 299 306 309 301 291 294 296 290
140 137 142 154 146 137 137 101 33 347 338 350 37 66 62 62 33 17 2 346 336 329 333 322 309 301 293 287 285 260 265 295 304 305 312 320 306 316 305 292 303 306 297